ALESUND/VIGRA current weather conditions

sailwx.info

Wind from 240 at 12 knots

Air temperature 10.0° C
Visibility: greater than 5.4 NM
Dewpoint 4.0° C

Last reported at 2018-Apr-26 15:50 UTC.
Time now 2018-Apr-26 17:03 UTC

Location: N 62°34' E 006°07'.
View on Google Maps.

See reports from other nearby stations

  
Tides and Currents Weather Stations Pressure Air Temp Water Temp Dewpoint Dewpoint Depression Visibility Wind Speed Wind Dir Waves Ship Positions
date/time (UTC)wind fromknots sea level pressurealtimeterstation pressurevisibilityair tempwater tempwave heightnotes
2018-Apr-26 15:50 240 12 5.410.0
2018-Apr-26 15:20 230 11 5.4 9.0
2018-Apr-26 14:50 240 9 5.4 9.0
2018-Apr-26 14:20 230 11 5.4 9.0
2018-Apr-26 13:50 230 13 5.4 8.0
2018-Apr-26 13:20 240 17 5.4 8.0
2018-Apr-26 12:50 240 13 5.4 8.0
2018-Apr-26 12:20 240 14 5.4 9.0
2018-Apr-26 11:50 240 17 5.4 8.0
2018-Apr-26 11:20 250 14 5.4 8.0
2018-Apr-26 10:50 240 9 5.4 8.0
2018-Apr-26 10:20 250 9 5.4 7.0 Showers in the vicinity.
2018-Apr-26 09:50 260 11 5.4 6.0 Light rain showers.
2018-Apr-26 09:20 170 5 5.4 8.0
2018-Apr-26 08:50 150 6 5.4 8.0
2018-Apr-26 08:20 170 5 5.4 6.0
2018-Apr-26 07:50 160 4 5.4 5.0
2018-Apr-26 07:20 230 5 5.4 5.0 Light rain showers.
2018-Apr-26 06:50 260 8 4.9 4.0 Light rain showers.
2018-Apr-26 06:20 270 5 5.4 5.0 Light rain showers.
2018-Apr-26 05:50 230 6 5.4 5.0 Light drizzle.
2018-Apr-26 05:20 250 6 5.4 5.0 Light rain.
2018-Apr-26 04:50 250 7 5.4 5.0 Light rain.
2018-Apr-26 04:20 200 6 5.4 6.0 Light rain.
2018-Apr-26 03:50 160 6 5.4 6.0
2018-Apr-26 03:20 170 6 5.4 6.0 Light rain.
2018-Apr-26 02:50 160 6 5.4 6.0
2018-Apr-26 02:20 150 6 5.4 6.0
2018-Apr-26 01:50 150 6 5.4 6.0
2018-Apr-26 01:20 150 6 5.4 5.0
2018-Apr-26 00:50 170 6 5.4 6.0
2018-Apr-26 00:20 170 5 5.4 6.0
2018-Apr-25 23:50 190 4 5.4 6.0
2018-Apr-25 23:20 170 6 5.4 6.0
2018-Apr-25 22:50 160 6 5.4 6.0
2018-Apr-25 22:20 190 4 5.4 6.0
2018-Apr-25 21:50 220 6 5.4 6.0 Light drizzle.
2018-Apr-25 21:20 240 6 5.4 5.0 Drizzle.
2018-Apr-25 20:50 230 5 5.4 6.0
2018-Apr-25 20:20 210 4 5.4 6.0
2018-Apr-25 19:50 220 5 5.4 6.0
2018-Apr-25 19:20 240 5 5.4 6.0
2018-Apr-25 18:50 240 6 5.4 6.0
2018-Apr-25 18:20 240 5 5.4 6.0
2018-Apr-25 17:50 260 5 5.4 6.0
2018-Apr-25 17:20 240 6 5.4 6.0
2018-Apr-25 16:50 260 6 5.4 7.0
2018-Apr-25 16:20 260 7 5.4 8.0
2018-Apr-25 15:50 260 7 5.4 8.0
2018-Apr-25 15:20 270 7 5.4 7.0
2018-Apr-25 14:50 260 7 5.4 7.0
2018-Apr-25 14:20 280 8 5.4 7.0
2018-Apr-25 13:50 270 11 5.4 7.0
2018-Apr-25 13:20 270 8 5.4 7.0
2018-Apr-25 12:50 280 9 5.4 6.0
2018-Apr-25 12:20 260 12 5.4 7.0
2018-Apr-25 11:50 250 12 5.4 7.0
2018-Apr-25 11:20 260 13 5.4 6.0
2018-Apr-25 10:50 240 13 5.4 7.0 Showers in the vicinity.
2018-Apr-25 10:20 230 13 5.4 6.0 Showers in the vicinity.
2018-Apr-25 09:50 240 13 5.4 6.0 Showers in the vicinity.
2018-Apr-25 09:20 240 13 5.4 6.0
2018-Apr-25 08:50 250 12 5.4 6.0
2018-Apr-25 08:20 260 9 5.4 6.0 Showers in the vicinity.
2018-Apr-25 07:50 260 11 5.4 6.0 Showers in the vicinity.
2018-Apr-25 07:20 260 11 5.4 6.0 Showers in the vicinity.
2018-Apr-25 06:50 260 12 5.4 6.0 Showers in the vicinity.
2018-Apr-25 06:20 260 9 5.4 6.0 Showers in the vicinity.
2018-Apr-25 05:50 250 11 5.4 5.0
2018-Apr-25 05:20 260 9 5.4 5.0
2018-Apr-25 04:50 260 9 5.4 5.0
2018-Apr-25 04:20 250 12 5.4 5.0
2018-Apr-25 03:50 250 11 5.4 5.0
2018-Apr-25 03:20 250 11 5.4 5.0
2018-Apr-25 02:50 260 12 5.4 5.0
2018-Apr-25 02:20 250 12 5.4 5.0
2018-Apr-25 01:50 240 13 5.4 5.0
2018-Apr-25 01:20 250 15 5.4 5.0
2018-Apr-25 00:50 250 12 5.4 5.0
2018-Apr-25 00:20 240 13 5.4 5.0 Light drizzle.
2018-Apr-24 23:50 250 14 5.4 5.0
2018-Apr-24 23:20 250 14 5.4 5.0
2018-Apr-24 22:50 240 13 5.4 5.0 Light drizzle.
2018-Apr-24 22:20 240 17 5.4 5.0
2018-Apr-24 21:50 250 17 5.4 5.0
2018-Apr-24 21:20 250 15 5.4 5.0
2018-Apr-24 20:50 250 17 5.4 5.0
2018-Apr-24 20:20 250 15 5.4 5.0 Showers in the vicinity.
2018-Apr-24 19:50 250 18 5.4 6.0 Light drizzle.
2018-Apr-24 19:20 250 17 4.9 5.0 Light rain.
2018-Apr-24 18:50 240 20 5.4 6.0 Light rain.
2018-Apr-24 18:20 240 20 5.4 6.0 Light rain.
2018-Apr-24 17:50 240 20 5.4 6.0 Light rain.
2018-Apr-24 17:20 240 20 5.4 6.0 Light drizzle.